Tracking 30743 objects as of 20-Jun-2025
HD Live streaming from Space Station
objects crossing your sky now

STARLINK-2502

Track STARLINK-2502 now!
10-day predictions
STARLINK-2502 is classified as:


NORAD ID: 48327
Int'l Code: 2021-036BD
Perigee: 553.5 km
Apogee: 555.2 km
Inclination: 53.1 °
Period: 95.6 minutes
Semi major axis: 6925 km
RCS: Unknown
Launch date: April 29, 2021
Source: United States (US)
Launch site: AIR FORCE EASTERN TEST RANGE (AFETR)
Your satellite tracking list
Your tracking list is empty




NASA's NSSDC Master Catalog

Two Line Element Set (TLE):
1 48327U 21036BD  25171.09146147  .00001308  00000-0  10669-3 0  9991
2 48327  53.0524 200.4713 0001170  87.1418 272.9705 15.06400058229048
Source of the keplerian elements: AFSPC